Terminal Aerodrome Forecast
Issued by NWS Cleveland, OH

Home | Current Version | Previous Version | Graphics & Text | Print | Product List | Glossary On
Versions: 1 2 3 4 5 6 7 8 9 10 11 12 13 14 15 16 17 18 19 20 21 22
000
FTUS41 KCLE 231700
TAFMFD
TAF
KMFD 231739Z 2318/2418 16010KT P6SM SCT025 OVC045
      TEMPO 2321/2323 5SM -SHRA BKN025
     FM232300 13014G22KT 4SM -SHRA SCT008 OVC012
     FM240200 14018G28KT 2SM -SHRA OVC006
     FM241000 18020G30KT P6SM VCSH BKN012 OVC020=

USA.gov is the U.S. government's official web portal to all federal, state and local government web resources and services.